Weather History for Ireland West Airport Knock, Ireland

Change the Weather History Date:

Wednesday, May 29, 2013

  Actual Average Record
Temperature  
Mean Temperature 53 °F -  
Max Temperature 62 °F - - ()
Min Temperature 44 °F - - ()
Degree Days  
Heating Degree Days 12    
Growing Degree Days 3 (Base 50)    
Moisture  
Dew Point 45 °F    
Average Humidity 67    
Maximum Humidity 100    
Minimum Humidity 48    
Precipitation  
Precipitation 0.00 in - - ()
Sea Level Pressure  
Sea Level Pressure 29.96 in    
Wind  
Wind Speed 11 mph ()    
Max Wind Speed 21 mph    
Max Gust Speed 30 mph    
Visibility 6.8 miles    
Events      
T = Trace of Precipitation, MM = Missing Value Source: Averaged Metar Reports

Daily Weather History Graph

Daily Weather History Graph

Search for Another Location

Airport:

Trip Planner

Search our weather history database for the weather conditions in past years. The results will help you decide how hot, cold, wet, or windy it might be!

Date:

Astronomy

May. 29, 2013 Rise Set
Actual Time 5:13 AM IST 9:52 PM IST
Civil Twilight 4:23 AM IST 10:43 PM IST
Nautical Twilight 3:02 AM IST 12:04 AM IST
Astronomical Twilight Sun does not rise Sun does not rise
Moon 12:44 AM IST (5/29) 10:20 AM IST (5/29)
Length of Visible Light 18h 19m
Length of Day
16h 39m
Waning Gibbous, 75% of the Moon is Illuminated
May 29
Waning Gibbous
May 31
Last Quarter
Jun 8
New
Jun 16
First Quarter
Jun 23
Full

Hourly Weather History & Observations

Time (IST) Temp. Windchill Dew Point Humidity Pressure Visibility Wind Dir Wind Speed Gust Speed Precip Events Conditions
1:00 AM 46 °F - 45 °F 96% 29.77 in - NW 8.9 mph - -  
7:00 AM 45 °F - 44 °F 97% 29.85 in 19 mi NW 6.7 mph - -   Mostly Cloudy
7:00 AM 44.6 °F 40.7 °F 44.6 °F 100% 29.83 in 6.2 mi NW 6.9 mph - N/A   Mostly Cloudy
7:30 AM 46.4 °F 42.9 °F 46.4 °F 100% 29.83 in 6.2 mi North 6.9 mph - N/A   Mostly Cloudy
8:00 AM 48.2 °F - 46.4 °F 93% 29.86 in 6.2 mi North 6.9 mph - N/A   Mostly Cloudy
8:30 AM 50.0 °F - 48.2 °F 94% 29.86 in 6.2 mi North 9.2 mph - N/A   Scattered Clouds
9:00 AM 50.0 °F - 48.2 °F 94% 29.89 in 6.2 mi North 8.1 mph - N/A   Mostly Cloudy
9:30 AM 51.8 °F - 48.2 °F 88% 29.89 in 6.2 mi North 11.5 mph - N/A   Mostly Cloudy
10:00 AM 55.4 °F - 46.4 °F 72% 29.89 in 6.2 mi NNE 15.0 mph - N/A   Partly Cloudy
10:30 AM 55.4 °F - 44.6 °F 67% 29.92 in 6.2 mi North 13.8 mph - N/A   Partly Cloudy
11:00 AM 57.2 °F - 46.4 °F 67% 29.92 in 6.2 mi NNE 12.7 mph - N/A   Partly Cloudy
11:30 AM 59.0 °F - 46.4 °F 63% 29.92 in 6.2 mi North 12.7 mph - N/A   Partly Cloudy
12:00 PM 59.0 °F - 46.4 °F 63% 29.95 in 6.2 mi North 12.7 mph - N/A   Partly Cloudy
12:30 PM 59.0 °F - 44.6 °F 59% 29.95 in 6.2 mi North 16.1 mph - N/A   Partly Cloudy
1:00 PM 60 °F - 45 °F 48% 29.96 in 28 mi North 13.4 mph - -   Scattered Clouds
1:00 PM 60.8 °F - 44.6 °F 55% 29.95 in 6.2 mi North 13.8 mph - N/A   Partly Cloudy
1:30 PM 62.6 °F - 44.6 °F 52% 29.98 in 6.2 mi North 16.1 mph - N/A   Partly Cloudy
2:00 PM 62.6 °F - 44.6 °F 52% 29.98 in 6.2 mi North 16.1 mph - N/A   Partly Cloudy
2:30 PM 62.6 °F - 44.6 °F 52% 29.98 in 6.2 mi North 15.0 mph - N/A   Partly Cloudy
3:00 PM 62.6 °F - 44.6 °F 52% 29.98 in 6.2 mi North 13.8 mph - N/A   Partly Cloudy
3:30 PM 62.6 °F - 44.6 °F 52% 29.98 in 6.2 mi North 15.0 mph - N/A   Partly Cloudy
4:00 PM 62.6 °F - 46.4 °F 55% 29.98 in 6.2 mi North 17.3 mph 28.8 mph N/A   Partly Cloudy
4:30 PM 62.6 °F - 44.6 °F 52% 30.01 in 6.2 mi North 17.3 mph - N/A   Partly Cloudy
5:00 PM 60.8 °F - 44.6 °F 55% 30.01 in - NNW 20.7 mph - N/A   Clear
5:30 PM 59.0 °F - 44.6 °F 59% 30.01 in - North 18.4 mph 29.9 mph N/A   Clear
6:00 PM 59.0 °F - 42.8 °F 55% 30.04 in - North 19.6 mph - N/A   Clear
6:30 PM 57.2 °F - 41.0 °F 55% 30.04 in - North 18.4 mph 29.9 mph N/A   Clear
7:00 PM 57 °F - 43 °F 48% 30.06 in 34 mi North 17.9 mph - -  
7:00 PM 57.2 °F - 42.8 °F 59% 30.04 in - North 18.4 mph - N/A   Clear
7:30 PM 57.2 °F - 44.6 °F 63% 30.04 in - NNW 13.8 mph - N/A   Clear
8:00 PM 57.2 °F - 44.6 °F 63% 30.04 in - North 11.5 mph - N/A   Clear
8:30 PM 57.2 °F - 44.6 °F 63% 30.06 in - North 11.5 mph - N/A   Clear
9:00 PM 55.4 °F - 46.4 °F 72% 30.06 in - NNW 11.5 mph - N/A   Clear